Lambertville, MI

12:17 PM EDT on May 27, 2017 (GMT -0400)
Lambertville

Weather History for KDUH - February, 2013

Change the Weather History Date:

Sunday, February 10, 2013

  Actual Average (KTOL) Record (KTOL)
Temperature  
Mean Temperature 32 °F -  
Max Temperature 45 °F 31 °F 61 °F (1932)
Min Temperature 19 °F 13 °F -14 °F (1899)
Degree Days  
Heating Degree Days 33    
Moisture  
Dew Point 25 °F    
Average Humidity 70    
Maximum Humidity 91    
Minimum Humidity 51    
Precipitation  
Precipitation 0.00 in - - ()
Sea Level Pressure  
Sea Level Pressure 30.02 in    
Wind  
Wind Speed 5 mph (SE)    
Max Wind Speed 15 mph    
Max Gust Speed 25 mph    
Visibility 10 miles    
Events Rain    
Averages and records for this station are not official NWS values.
T = Trace of Precipitation, MM = Missing Value Source: NWS Daily Summary

Daily Weather History Graph

Daily Weather History Graph

Search for Another Location

Airport or City:

Trip Planner

Search our weather history database for the weather conditions in past years. The results will help you decide how hot, cold, wet, or windy it might be!

Date:

Astronomy

Feb. 10, 2013 Rise Set
Actual Time 7:36 AM EST 6:01 PM EST
Civil Twilight 7:07 AM EST 6:30 PM EST
Nautical Twilight 6:34 AM EST 7:03 PM EST
Astronomical Twilight 6:02 AM EST 7:35 PM EST
Moon 7:24 AM EST (2/10) 6:53 PM EST (2/10)
Length of Visible Light 11h 23m
Length of Day
10h 25m
New Moon, 0% of the Moon is Illuminated
Feb 10
New Moon
Feb 17
First Quarter
Feb 25
Full
Mar 4
Last Quarter
Mar 11
New

Hourly Weather History & Observations

Time (EST) Temp. Windchill Dew Point Humidity Pressure Visibility Wind Dir Wind Speed Gust Speed Precip Events Conditions
12:15 AM 21.0 °F 16.2 °F 18.3 °F 89% 30.28 in 7.0 mi East 3.5 mph - N/A   Clear
12:36 AM 22.3 °F 17.6 °F 19.6 °F 89% 30.26 in 10.0 mi ESE 3.5 mph - N/A   Clear
12:55 AM 22.5 °F 16.3 °F 19.4 °F 88% 30.25 in 7.0 mi ESE 4.6 mph - N/A   Clear
1:15 AM 22.1 °F 15.9 °F 19.2 °F 89% 30.25 in 10.0 mi ESE 4.6 mph - N/A   Clear
1:35 AM 21.6 °F - 18.5 °F 88% 30.24 in 7.0 mi Calm Calm - N/A   Clear
1:55 AM 20.1 °F - 17.2 °F 89% 30.23 in 7.0 mi Calm Calm - N/A   Clear
2:15 AM 19.8 °F - 17.1 °F 89% 30.23 in 5.0 mi Calm Calm - N/A   Clear
2:36 AM 20.5 °F 14.0 °F 18.1 °F 91% 30.22 in 7.0 mi ESE 4.6 mph - N/A   Clear
2:55 AM 21.4 °F 15.1 °F 18.5 °F 89% 30.22 in 7.0 mi ESE 4.6 mph - N/A   Clear
3:15 AM 21.7 °F 15.5 °F 18.5 °F 87% 30.21 in 7.0 mi ESE 4.6 mph - N/A   Clear
3:36 AM 22.8 °F 16.7 °F 19.0 °F 85% 30.20 in 10.0 mi ESE 4.6 mph - N/A   Clear
3:55 AM 23.4 °F 17.4 °F 19.2 °F 84% 30.20 in 10.0 mi ESE 4.6 mph - N/A   Clear
4:15 AM 23.9 °F 18.0 °F 19.2 °F 82% 30.20 in 10.0 mi ESE 4.6 mph - N/A   Clear
4:35 AM 24.1 °F 19.7 °F 19.0 °F 81% 30.20 in 10.0 mi ESE 3.5 mph - N/A   Clear
4:55 AM 24.4 °F 20.1 °F 19.4 °F 81% 30.19 in 10.0 mi ESE 3.5 mph - N/A   Clear
5:16 AM 24.8 °F 20.5 °F 19.4 °F 80% 30.20 in 10.0 mi ESE 3.5 mph - N/A   Clear
5:35 AM 25.0 °F - 19.4 °F 79% 30.20 in 10.0 mi Calm Calm - N/A   Clear
5:55 AM 24.6 °F - 19.2 °F 80% 30.21 in 10.0 mi Calm Calm - N/A   Clear
6:15 AM 23.4 °F - 19.0 °F 84% 30.20 in 10.0 mi Calm Calm - N/A   Clear
6:35 AM 23.9 °F 19.5 °F 19.2 °F 82% 30.20 in 10.0 mi East 3.5 mph - N/A   Clear
6:56 AM 23.7 °F - 19.0 °F 82% 30.20 in 10.0 mi Calm Calm - N/A   Clear
7:15 AM 24.4 °F 18.6 °F 19.4 °F 81% 30.17 in 10.0 mi East 4.6 mph - N/A   Clear
7:35 AM 25.5 °F 19.9 °F 19.9 °F 79% 30.17 in 10.0 mi ESE 4.6 mph - N/A   Scattered Clouds
7:55 AM 26.2 °F 19.6 °F 20.3 °F 78% 30.15 in 10.0 mi East 5.8 mph - N/A   Mostly Cloudy
8:15 AM 26.6 °F 21.2 °F 20.5 °F 78% 30.14 in 10.0 mi East 4.6 mph - N/A   Overcast
8:35 AM 27.5 °F 22.2 °F 21.2 °F 77% 30.14 in 10.0 mi East 4.6 mph - N/A   Overcast
8:55 AM 28.2 °F 22.0 °F 21.7 °F 77% 30.15 in 10.0 mi ESE 5.8 mph - N/A   Overcast
9:15 AM 29.1 °F 22.1 °F 21.9 °F 74% 30.13 in 10.0 mi ESE 6.9 mph - N/A   Overcast
9:35 AM 30.0 °F 23.2 °F 22.1 °F 72% 30.12 in 10.0 mi ESE 6.9 mph - N/A   Overcast
9:55 AM 31.3 °F 24.7 °F 22.1 °F 69% 30.12 in 10.0 mi ESE 6.9 mph - N/A   Overcast
10:15 AM 32.0 °F 25.6 °F 22.1 °F 67% 30.11 in 10.0 mi SE 6.9 mph - N/A   Overcast
10:35 AM 33.6 °F 28.4 °F 23.0 °F 65% 30.12 in 10.0 mi SSE 5.8 mph - N/A   Overcast
10:55 AM 36.1 °F 29.9 °F 23.2 °F 59% 30.11 in 10.0 mi SE 8.1 mph - N/A   Overcast
11:15 AM 37.6 °F 31.6 °F 23.7 °F 57% 30.10 in 10.0 mi South 8.1 mph - N/A   Overcast
11:35 AM 38.5 °F 34.1 °F 24.8 °F 58% 30.10 in 10.0 mi SE 5.8 mph - N/A   Overcast
11:55 AM 39.4 °F 35.2 °F 24.6 °F 56% 30.09 in 10.0 mi SE 5.8 mph - N/A   Overcast
12:15 PM 41.0 °F 36.4 °F 25.9 °F 55% 30.07 in 10.0 mi SE 6.9 mph - N/A   Overcast
12:35 PM 42.1 °F 36.6 °F 25.0 °F 51% 30.04 in 10.0 mi SE 9.2 mph - N/A   Overcast
12:55 PM 42.8 °F 38.0 °F 26.1 °F 52% 30.02 in 10.0 mi SE 8.1 mph - N/A   Overcast
1:15 PM 42.8 °F 38.0 °F 26.1 °F 52% 30.02 in 10.0 mi SSE 8.1 mph - N/A   Overcast
1:35 PM 42.3 °F 37.3 °F 27.0 °F 55% 30.01 in 10.0 mi SSE 8.1 mph - N/A   Overcast
1:55 PM 41.9 °F 36.3 °F 27.5 °F 57% 30.00 in 10.0 mi SSE 9.2 mph - N/A   Overcast
2:15 PM 42.1 °F 38.4 °F 28.0 °F 58% 29.98 in 10.0 mi SE 5.8 mph - N/A   Overcast
2:35 PM 42.8 °F 40.1 °F 29.1 °F 58% 29.96 in 10.0 mi SE 4.6 mph - N/A   Overcast
2:55 PM 42.6 °F 39.9 °F 29.5 °F 60% 29.95 in 10.0 mi East 4.6 mph - N/A   Overcast
3:15 PM 41.0 °F 38.0 °F 30.2 °F 65% 29.94 in 10.0 mi East 4.6 mph - N/A   Overcast
3:35 PM 41.0 °F 37.1 °F 30.4 °F 66% 29.93 in 10.0 mi East 5.8 mph - N/A   Overcast
3:55 PM 40.6 °F 35.4 °F 30.9 °F 68% 29.93 in 10.0 mi SE 8.1 mph - N/A   Overcast
4:15 PM 42.8 °F 38.0 °F 30.2 °F 61% 29.93 in 10.0 mi SE 8.1 mph - N/A   Overcast
4:35 PM 42.8 °F 41.1 °F 30.0 °F 61% 29.92 in 10.0 mi SE 3.5 mph - N/A   Overcast
4:55 PM 42.1 °F 37.1 °F 29.8 °F 62% 29.88 in 10.0 mi ESE 8.1 mph - N/A   Overcast
5:15 PM 43.0 °F 38.8 °F 28.2 °F 56% 29.87 in 10.0 mi ESE 6.9 mph - N/A   Overcast
5:35 PM 43.0 °F 38.2 °F 27.7 °F 55% 29.87 in 10.0 mi SE 8.1 mph - N/A   Overcast
5:55 PM 43.0 °F 38.2 °F 27.5 °F 54% 29.87 in 10.0 mi SE 8.1 mph - N/A   Overcast
6:15 PM 42.8 °F 39.3 °F 27.5 °F 55% 29.85 in 10.0 mi SE 5.8 mph - N/A Rain Light Rain
6:35 PM 42.3 °F 39.4 °F 28.9 °F 59% 29.85 in 10.0 mi ESE 4.6 mph - N/A Rain Light Rain
6:55 PM 42.1 °F 38.4 °F 29.3 °F 61% 29.83 in 10.0 mi SE 5.8 mph - N/A   Overcast
7:15 PM 42.4 °F 37.5 °F 29.3 °F 60% 29.84 in 10.0 mi SE 8.1 mph - N/A   Light Drizzle
7:35 PM 43.0 °F 37.7 °F 29.3 °F 59% 29.84 in 10.0 mi SE 9.2 mph 16.1 mph N/A   Overcast
7:55 PM 41.0 °F 34.7 °F 32.5 °F 72% 29.81 in 7.0 mi SE 10.4 mph 19.6 mph N/A Rain Light Rain
8:15 PM 41.2 °F 35.5 °F 33.8 °F 75% 29.79 in 10.0 mi SE 9.2 mph - N/A   Overcast
8:35 PM 42.3 °F 37.3 °F 32.4 °F 68% 29.77 in 10.0 mi SE 8.1 mph - N/A   Overcast
8:55 PM 43.7 °F 39.1 °F 31.6 °F 63% 29.77 in 10.0 mi SE 8.1 mph - N/A   Overcast
9:15 PM 44.6 °F 39.7 °F 30.6 °F 58% 29.76 in 10.0 mi SSE 9.2 mph 16.1 mph N/A   Overcast
9:35 PM 45.5 °F 40.3 °F 30.7 °F 56% 29.76 in 10.0 mi South 10.4 mph 23.0 mph N/A   Overcast
9:55 PM 45.9 °F 39.7 °F 32.0 °F 58% 29.74 in 10.0 mi South 13.8 mph 25.3 mph N/A   Overcast
10:15 PM 45.5 °F 40.3 °F 32.9 °F 61% 29.73 in 10.0 mi South 10.4 mph 19.6 mph N/A Rain Light Rain
10:35 PM 45.7 °F 40.6 °F 34.0 °F 64% 29.73 in 10.0 mi South 10.4 mph 19.6 mph N/A   Overcast
10:55 PM 44.6 °F 39.2 °F 37.4 °F 76% 29.73 in 10.0 mi South 10.4 mph 20.7 mph N/A Rain Light Rain
11:15 PM 45.0 °F 38.9 °F 38.3 °F 77% 29.71 in 10.0 mi South 12.7 mph 20.7 mph N/A   Overcast
11:35 PM 45.5 °F 40.8 °F 38.7 °F 77% 29.70 in 10.0 mi South 9.2 mph 16.1 mph N/A   Overcast
11:55 PM 45.9 °F 39.4 °F 39.4 °F 78% 29.69 in 10.0 mi South 15.0 mph 23.0 mph N/A   Overcast